Location: Stockholm
(59.3330°N, 18.0500°E)
Time: 10:54:14
(UTC+01:00)

FENGYUN 1C DEB - Pass Details

Date: 15 December 2023
Orbit: 841 x 915 km, 98.8° (Epoch: 21 February)

Event Time Altitude Azimuth Distance (km) Brightness Sun altitude
Exits shadow 20:12:11 15° 345° (NNW) 2,125 ? -38.6°
Drops below altitude 10° 20:13:08 10° 344° (NNW) 2,492 ? -38.7°
Sets 20:15:31 0° 343° (NNW) 3,440 ? -39.0°
